DMSP 5D-2 F13 DEB, 40526

Orbit data source: Space-Track

DMSP 5D-2 F13 DEB, 40526 is space debris in SSO originally from a launch on Fri, 24 Mar 1995 UTC launched from the Air Force Western Test Range (AFWTR). Debris objects in space refer to the collection of defunct objects orbiting the Earth. Examples of debris include non-operational satellites, rocket bodies, and fragments generated from explosions, collisions, or faulty payload assembly.

Loading next visibility...
Identifier
40526, 1995-015DN
Orbit
SSO
Country
Flag of USUS
Related business
Manufacturer
Unknown
Mission
Spacecraft
Bus & Motor
Unknown
Mass
Unknown
Launch date (UTC)
1995-03-24 (31 years ago)
Launch vehicle
Unknown
Launch site
Air Force Western Test Range (AFWTR)
Object type
Payload
Rocket body
Debris
Shape & HBR
Unknown shape, 0.1 m
Radar Cross Section
Small (<0.1 m²)

Expand to show TLE details & history
Last TLE update: 19 hours ago

TLE from 19 hours ago
0 DMSP 5D-2 F13 DEB
1 40526U 95015DN  26035.07631267  .00006931  00000-0  19702-2 0  9995
2 40526  98.6222  78.6649 0022318 344.1499  15.8991 14.45525783566080
Epoch: 2026-02-04T01:49Z
TLE epoch observation values (Epoch: 2026-02-04T01:49:53.414Z)
Latitude
-0.00002°
Longitude
-83.05574°
Altitude
727.972 km
Speed
7.499 km/s
True Right ascension
05h 14m 39s
True Declination
0° 00' 00"
Sunlit
Object was in full shadow at epoch
Visualization orbit readout
Latitude
Unknown
Longitude
Unknown
Altitude
Unknown
Speed
Unknown
Apparent Right ascension
Unknown
Apparent Declination
Unknown
Sunlit
N/A
Visualization observer readout
Local Sidereal Time
22:19:46
Azimuth
Unknown
Elevation
Unknown
Doppler factor
Unknown
Orbital elements
Apogee altitude
753.3 km
Perigee altitude
721.539 km
Semi-major axis
7,115.557 km
Eccentricity
0.00223
Inclination
98.6222°
RAAN
78.6649°
Arg. of periapsis
344.1499°
True anomaly
15.96935°
Mean anomaly
15.8991°
Eccentric anomaly
15.93421°
Mean motion
3.61601 °/min
Orbital period
99.56 mins
BSTAR
0.0019702
Loading maneuver chart data...
Computing Atmospheric mass density...

Documentation

Showing up to 5 results
|